星链-31776 (STARLINK-31776 )

导读

STARLINK-31776是美国SpaceX星链星座的卫星,于北京时间2024年4月28日发射升空,属于星链互联网星座扩容任务的一部分。星链星座计划通过数万颗低轨卫星,为全球提供高速低延迟的宽带互联网服务,该卫星入轨后将参与组网,进一步完善星链系统的全球覆盖能力,提升服务稳定性与容量。

Basic Information
目录编号:
59603
目录名称:
STARLINK-31776
国际标识:
2024-080C
轨道中心:
EARTH
卫星名称:
星链-31776
卫星全名:
星链-31776 (STARLINK-31776 )
卫星状态:
在轨 (已飞行781 天)
发射日期:
2024-04-28 UTC
国别 :
美国 (US)
星等 :
--
Orbit Information
数据来源 国际轨道数据 AOE轨道数据
星历时间 2026-06-16T17:13:05+0800
1天前
查看轨道信息
2026-06-17T06:00:00+0800
1天前
查看轨道信息
半长轴 6861.208km 6861.165km
偏心率 0.0001009 0.0001133
轨道倾角 43.001° 42.998°
近地点辐角 267.327° 208.750°
升交点赤经 204.255° 201.249°
平近点角 92.746° 203.558°
近地点 482.378km 482.25km
远地点 483.764km 483.806km
周期 94.267分钟 94.266分钟
每日圈数 15.275727 15.275873
Detailed Information
固有亮度:
5
最大亮度:
1.5
卫星平台:
Starlink v2.0 mini
覆盖范围:
全球
运营商:
太空探索技术公司
运营商所在国:
美国
制造商(研发单位):
太空探索技术公司
制造商所在国:
美国
使用方式:
暂无
Satellite Introduction
星链(Starlink)计划是由太空探索技术公司(SpaceX)提出的一个巨型低轨卫星互联网星座项目,计划在2019年至2024年间在太空搭建由约1.2万颗卫星组成的“星链”网络,其中1584颗将部署在地球上空550千米处的近地轨道,并从2020年开始工作。该卫星仍在工作。
2D Orbit Map
3D Orbit Map
Orbit Altitude Analysis Chart
Orbit Inclination Analysis Chart
Orbit Comprehensive Analysis Chart
View Comprehensive Chart